User: anonymous   Login
Location: Fort Wayne
(41.1310°N, 85.1290°W)
Time: 14:00:37
(UTC-04:00)
Language:

IDEFIX/ARIANE 42P - Orbit

View from above orbital plane
View from above orbital plane
View from above satellite
View from above satellite

Ground track
Ground track

The orbit data is extracted from the following two-line orbital elements,

1 27422U 02021B   18173.91476915 -.00000005 +00000-0 +14111-4 0  9992
2 27422 098.2560 159.1894 0011436 213.1077 146.9391 14.29263560841523
Epoch (UTC): 22 June 2018 21:57:16
Eccentricity: 0.0011436
inclination: 98.2560°
perigee height: 786 km
apogee height: 802 km
right ascension of ascending node: 159.1894°
argument of perigee: 213.1077°
revolutions per day: 14.29263560
mean anomaly at epoch: 146.9391°
orbit number at epoch: 84152

The dashed part of the orbit path shows where the satellite is in the earth's shadow,  

DLR